Time,TemperatureF,DewpointF,PressureIn,WindDirection,WindDirectionDegrees,WindSpeedMPH,WindSpeedGustMPH,Humidity,HourlyPrecipIn,Conditions,Clouds,dailyrainin,SoftwareType,DateUTC
2013-02-18 00:04:00,24.1,11.0,29.88,NNW,336,0.0,0.0,61,0.00,,,0.00,TxWx,2013-02-18 06:04:00,
2013-02-18 00:09:00,24.2,11.0,29.88,NNW,335,0.0,0.0,60,0.00,,,0.00,TxWx,2013-02-18 06:09:00,
2013-02-18 00:14:00,24.3,11.0,29.88,NNW,337,0.0,0.0,60,0.00,,,0.00,TxWx,2013-02-18 06:14:00,
2013-02-18 00:20:00,24.4,11.0,29.88,NNW,340,0.0,0.0,59,0.00,,,0.00,TxWx,2013-02-18 06:20:00,
2013-02-18 00:25:00,24.4,11.0,29.87,NNW,337,0.0,0.0,59,0.00,,,0.00,TxWx,2013-02-18 06:25:00,
2013-02-18 00:30:00,24.5,11.0,29.87,NNW,337,0.0,0.0,59,0.00,,,0.00,TxWx,2013-02-18 06:30:00,
2013-02-18 00:35:00,24.5,11.0,29.87,NNW,337,0.0,0.0,59,0.00,,,0.00,TxWx,2013-02-18 06:35:00,
2013-02-18 00:41:00,24.6,11.0,29.87,NNW,339,0.0,0.0,59,0.00,,,0.00,TxWx,2013-02-18 06:41:00,
2013-02-18 00:46:00,24.6,11.0,29.86,NNW,339,0.0,0.0,59,0.00,,,0.00,TxWx,2013-02-18 06:46:00,
2013-02-18 00:51:00,24.6,11.0,29.86,NNW,339,0.0,0.0,59,0.00,,,0.00,TxWx,2013-02-18 06:51:00,
2013-02-18 00:56:00,24.6,12.0,29.86,NNW,339,0.0,0.0,59,0.00,,,0.00,TxWx,2013-02-18 06:56:00,
2013-02-18 01:02:00,24.7,12.0,29.85,NNW,339,0.0,0.0,59,0.00,,,0.00,TxWx,2013-02-18 07:02:00,
2013-02-18 01:07:00,24.9,12.0,29.85,NNW,340,0.0,0.0,59,0.00,,,0.00,TxWx,2013-02-18 07:07:00,
2013-02-18 01:12:00,25.0,12.0,29.85,NNW,340,0.0,0.0,59,0.00,,,0.00,TxWx,2013-02-18 07:12:00,
2013-02-18 01:17:00,25.0,12.0,29.85,NNW,338,0.0,0.0,59,0.00,,,0.00,TxWx,2013-02-18 07:17:00,
2013-02-18 01:22:00,25.1,12.0,29.85,NNW,338,0.0,0.0,59,0.00,,,0.00,TxWx,2013-02-18 07:22:00,
2013-02-18 01:28:00,25.3,12.0,29.85,NNW,338,0.0,0.0,59,0.00,,,0.00,TxWx,2013-02-18 07:28:00,
2013-02-18 01:33:00,25.2,12.0,29.84,NNW,337,0.0,0.0,60,0.00,,,0.00,TxWx,2013-02-18 07:33:00,
2013-02-18 01:38:00,25.2,12.0,29.84,NNW,341,0.0,0.0,60,0.00,,,0.00,TxWx,2013-02-18 07:38:00,
2013-02-18 01:43:00,25.3,12.0,29.84,NNW,341,0.0,0.0,60,0.00,,,0.00,TxWx,2013-02-18 07:43:00,
2013-02-18 01:48:00,25.3,12.0,29.84,NNW,336,0.0,0.0,60,0.00,,,0.00,TxWx,2013-02-18 07:48:00,
2013-02-18 01:53:00,25.3,12.0,29.83,NNW,340,0.0,0.0,60,0.00,,,0.00,TxWx,2013-02-18 07:53:00,
2013-02-18 01:59:00,25.3,12.0,29.83,NNW,338,0.0,0.0,60,0.00,,,0.00,TxWx,2013-02-18 07:59:00,
2013-02-18 02:04:00,25.3,12.0,29.83,NNW,342,0.0,0.0,60,0.00,,,0.00,TxWx,2013-02-18 08:04:00,
2013-02-18 02:09:00,25.3,12.0,29.83,NNW,345,0.0,0.0,60,0.00,,,0.00,TxWx,2013-02-18 08:09:00,
2013-02-18 02:14:00,25.4,12.0,29.83,NNW,345,0.0,0.0,60,0.00,,,0.00,TxWx,2013-02-18 08:14:00,
2013-02-18 02:20:00,25.6,13.0,29.82,NNW,343,0.0,0.0,60,0.00,,,0.00,TxWx,2013-02-18 08:20:00,
2013-02-18 02:25:00,25.7,13.0,29.82,NNW,339,0.0,0.0,60,0.00,,,0.00,TxWx,2013-02-18 08:25:00,
2013-02-18 02:30:00,25.7,13.0,29.81,NNW,334,0.0,0.0,60,0.00,,,0.00,TxWx,2013-02-18 08:30:00,
2013-02-18 02:35:00,25.9,13.0,29.81,NNW,342,0.0,0.0,60,0.00,,,0.00,TxWx,2013-02-18 08:35:00,
2013-02-18 02:41:00,26.2,13.0,29.81,NNW,342,0.0,0.0,60,0.00,,,0.00,TxWx,2013-02-18 08:41:00,
2013-02-18 02:46:00,26.4,13.0,29.81,NNW,341,0.0,0.0,59,0.00,,,0.00,TxWx,2013-02-18 08:46:00,
2013-02-18 02:51:00,26.5,12.0,29.81,NNW,343,0.0,0.0,59,0.00,,,0.00,TxWx,2013-02-18 08:51:00,
2013-02-18 02:56:00,26.6,13.0,29.80,NNW,341,0.0,0.0,59,0.00,,,0.00,TxWx,2013-02-18 08:56:00,
2013-02-18 03:02:00,26.9,13.0,29.80,NNW,342,0.0,0.0,59,0.00,,,0.00,TxWx,2013-02-18 09:02:00,
2013-02-18 03:07:00,27.1,13.0,29.79,NNW,344,0.0,0.0,58,0.00,,,0.00,TxWx,2013-02-18 09:07:00,
2013-02-18 03:12:00,27.2,13.0,29.79,NNW,345,0.0,0.0,58,0.00,,,0.00,TxWx,2013-02-18 09:12:00,
2013-02-18 03:17:00,27.5,14.0,29.78,NNW,343,0.0,0.0,57,0.00,,,0.00,TxWx,2013-02-18 09:17:00,
2013-02-18 03:22:00,27.9,13.0,29.78,NNW,343,0.0,0.0,56,0.00,,,0.00,TxWx,2013-02-18 09:22:00,
2013-02-18 03:28:00,28.0,13.0,29.77,NNW,345,0.0,0.0,56,0.00,,,0.00,TxWx,2013-02-18 09:28:00,
2013-02-18 03:33:00,28.2,13.0,29.77,NNW,345,0.0,0.0,56,0.00,,,0.00,TxWx,2013-02-18 09:33:00,
2013-02-18 03:38:00,28.0,13.0,29.77,NNW,343,0.0,0.0,56,0.00,,,0.00,TxWx,2013-02-18 09:38:00,
2013-02-18 03:43:00,28.0,13.0,29.76,NNW,343,0.0,0.0,56,0.00,,,0.00,TxWx,2013-02-18 09:43:00,
2013-02-18 03:49:00,27.9,14.0,29.76,NNW,344,0.0,0.0,57,0.00,,,0.00,TxWx,2013-02-18 09:49:00,
2013-02-18 03:54:00,27.9,14.0,29.76,NNW,343,0.0,0.0,57,0.00,,,0.00,TxWx,2013-02-18 09:54:00,
2013-02-18 03:59:00,27.9,14.0,29.76,NNW,343,0.0,0.0,57,0.00,,,0.00,TxWx,2013-02-18 09:59:00,
2013-02-18 04:04:00,28.0,14.0,29.75,NNW,343,0.0,0.0,57,0.00,,,0.00,TxWx,2013-02-18 10:04:00,
2013-02-18 04:09:00,28.1,14.0,29.75,NNW,343,0.0,0.0,57,0.00,,,0.00,TxWx,2013-02-18 10:09:00,
2013-02-18 04:14:00,27.9,14.0,29.75,NNW,339,0.0,0.0,57,0.00,,,0.00,TxWx,2013-02-18 10:14:00,
2013-02-18 04:20:00,27.9,14.0,29.74,NNW,342,0.0,0.0,57,0.00,,,0.00,TxWx,2013-02-18 10:20:00,
2013-02-18 04:25:00,27.9,14.0,29.74,NNW,343,0.0,0.0,57,0.00,,,0.00,TxWx,2013-02-18 10:25:00,
2013-02-18 04:30:00,28.0,14.0,29.74,NNW,345,0.0,0.0,57,0.00,,,0.00,TxWx,2013-02-18 10:30:00,
2013-02-18 04:35:00,28.2,14.0,29.74,NNW,342,0.0,0.0,57,0.00,,,0.00,TxWx,2013-02-18 10:35:00,
2013-02-18 04:41:00,28.0,14.0,29.74,NNW,344,0.0,0.0,57,0.00,,,0.00,TxWx,2013-02-18 10:41:00,
2013-02-18 04:47:00,28.3,14.0,29.73,NNW,345,0.0,0.0,57,0.00,,,0.00,TxWx,2013-02-18 10:47:00,
2013-02-18 04:52:00,28.3,14.0,29.73,NNW,342,0.0,0.0,57,0.00,,,0.00,TxWx,2013-02-18 10:52:00,
2013-02-18 04:58:00,28.3,14.0,29.73,NNW,345,0.0,0.0,57,0.00,,,0.00,TxWx,2013-02-18 10:58:00,
2013-02-18 05:03:00,28.4,14.0,29.73,NNW,345,0.0,0.0,57,0.00,,,0.00,TxWx,2013-02-18 11:03:00,
2013-02-18 05:09:00,28.5,14.0,29.73,NNW,344,0.0,0.0,57,0.00,,,0.00,TxWx,2013-02-18 11:09:00,
2013-02-18 05:14:00,28.7,14.0,29.73,NNW,343,0.0,0.0,56,0.00,,,0.00,TxWx,2013-02-18 11:14:00,
2013-02-18 05:19:00,28.6,14.0,29.72,NNW,344,0.0,0.0,56,0.00,,,0.00,TxWx,2013-02-18 11:19:00,
2013-02-18 05:24:00,28.6,14.0,29.72,NNW,345,0.0,0.0,57,0.00,,,0.00,TxWx,2013-02-18 11:24:00,
2013-02-18 05:29:00,28.6,14.0,29.72,NNW,343,0.0,0.0,57,0.00,,,0.00,TxWx,2013-02-18 11:29:00,
2013-02-18 05:35:00,28.5,14.0,29.71,NNW,340,0.0,0.0,57,0.00,,,0.00,TxWx,2013-02-18 11:35:00,
2013-02-18 05:40:00,28.3,14.0,29.70,NNW,344,0.0,0.0,57,0.00,,,0.00,TxWx,2013-02-18 11:40:00,
2013-02-18 05:45:00,28.2,14.0,29.70,NNW,345,0.0,0.0,58,0.00,,,0.00,TxWx,2013-02-18 11:45:00,
2013-02-18 05:50:00,28.2,14.0,29.69,NNW,346,0.0,0.0,58,0.00,,,0.00,TxWx,2013-02-18 11:50:00,
2013-02-18 05:55:00,28.1,14.0,29.69,NNW,343,0.0,0.0,59,0.00,,,0.00,TxWx,2013-02-18 11:55:00,
2013-02-18 06:01:00,28.0,15.0,29.68,NNW,344,0.0,0.0,59,0.00,,,0.00,TxWx,2013-02-18 12:01:00,
2013-02-18 06:06:00,27.9,15.0,29.67,NNW,343,0.0,0.0,59,0.00,,,0.00,TxWx,2013-02-18 12:06:00,
2013-02-18 06:11:00,27.9,15.0,29.67,NNW,344,0.0,0.0,60,0.00,,,0.00,TxWx,2013-02-18 12:11:00,
2013-02-18 06:16:00,27.9,15.0,29.67,NNW,344,0.0,0.0,60,0.00,,,0.00,TxWx,2013-02-18 12:16:00,
2013-02-18 06:21:00,27.9,15.0,29.66,NNW,346,0.0,0.0,60,0.00,,,0.00,TxWx,2013-02-18 12:21:00,
2013-02-18 06:26:00,28.0,15.0,29.66,NNW,343,0.0,0.0,60,0.00,,,0.00,TxWx,2013-02-18 12:26:00,
2013-02-18 06:32:00,28.1,15.0,29.66,NNW,346,0.0,0.0,60,0.00,,,0.00,TxWx,2013-02-18 12:32:00,
2013-02-18 06:37:00,28.1,15.0,29.66,NNW,345,0.0,0.0,60,0.00,,,0.00,TxWx,2013-02-18 12:37:00,
2013-02-18 06:42:00,28.2,15.0,29.65,NNW,344,0.0,0.0,61,0.00,,,0.00,TxWx,2013-02-18 12:42:00,
2013-02-18 06:47:00,28.2,15.0,29.65,NNW,344,0.0,0.0,61,0.00,,,0.00,TxWx,2013-02-18 12:47:00,
2013-02-18 06:52:00,28.3,15.0,29.65,NNW,343,0.0,0.0,61,0.00,,,0.00,TxWx,2013-02-18 12:52:00,
2013-02-18 06:57:00,28.5,15.0,29.65,NNW,342,0.0,0.0,61,0.00,,,0.00,TxWx,2013-02-18 12:57:00,
2013-02-18 07:02:00,28.6,16.0,29.65,NNW,343,0.0,0.0,61,0.00,,,0.00,TxWx,2013-02-18 13:02:00,
2013-02-18 07:08:00,28.9,16.0,29.65,NNW,346,0.0,0.0,61,0.00,,,0.00,TxWx,2013-02-18 13:08:00,
2013-02-18 07:13:00,29.1,16.0,29.64,NNW,343,0.0,0.0,61,0.00,,,0.00,TxWx,2013-02-18 13:13:00,
2013-02-18 07:18:00,29.2,16.0,29.64,NNW,343,0.0,0.0,61,0.00,,,0.00,TxWx,2013-02-18 13:18:00,
2013-02-18 07:23:00,29.3,16.0,29.64,NNW,345,0.0,0.0,61,0.00,,,0.00,TxWx,2013-02-18 13:23:00,
2013-02-18 07:28:00,29.4,16.0,29.64,NNW,343,0.0,0.0,61,0.00,,,0.00,TxWx,2013-02-18 13:28:00,
2013-02-18 07:34:00,29.8,17.0,29.64,NNW,344,0.0,0.0,61,0.00,,,0.00,TxWx,2013-02-18 13:34:00,
2013-02-18 07:39:00,30.1,17.0,29.64,NNW,342,0.0,0.0,61,0.00,,,0.00,TxWx,2013-02-18 13:39:00,
2013-02-18 07:44:00,30.4,17.0,29.63,NNW,343,0.0,0.0,61,0.00,,,0.00,TxWx,2013-02-18 13:44:00,
2013-02-18 07:49:00,30.8,18.0,29.63,NNW,343,0.0,0.0,60,0.00,,,0.00,TxWx,2013-02-18 13:49:00,
2013-02-18 07:55:00,31.1,18.0,29.63,NNW,345,0.0,0.0,60,0.00,,,0.00,TxWx,2013-02-18 13:55:00,
2013-02-18 08:00:00,31.5,18.0,29.63,NNW,342,0.0,0.0,60,0.00,,,0.00,TxWx,2013-02-18 14:00:00,
2013-02-18 08:05:00,31.9,18.0,29.63,NNW,345,0.0,0.0,59,0.00,,,0.00,TxWx,2013-02-18 14:05:00,
2013-02-18 08:10:00,32.2,18.0,29.63,NNW,343,0.0,0.0,59,0.00,,,0.00,TxWx,2013-02-18 14:10:00,
2013-02-18 08:16:00,32.5,18.0,29.62,NNW,342,0.0,0.0,59,0.00,,,0.00,TxWx,2013-02-18 14:16:00,
2013-02-18 08:21:00,32.7,19.0,29.62,NNW,345,0.0,0.0,58,0.00,,,0.00,TxWx,2013-02-18 14:21:00,
2013-02-18 08:26:00,33.1,19.0,29.62,NNW,346,0.0,0.0,58,0.00,,,0.00,TxWx,2013-02-18 14:26:00,
2013-02-18 08:31:00,33.1,19.0,29.62,NNW,346,0.0,0.0,58,0.00,,,0.00,TxWx,2013-02-18 14:31:00,
2013-02-18 08:36:00,33.6,20.0,29.62,NNW,345,0.0,0.0,59,0.00,,,0.00,TxWx,2013-02-18 14:36:00,
2013-02-18 08:42:00,33.9,20.0,29.62,NNW,344,0.0,0.0,58,0.00,,,0.00,TxWx,2013-02-18 14:42:00,
2013-02-18 08:47:00,34.3,20.0,29.61,NNW,346,0.0,0.0,58,0.00,,,0.00,TxWx,2013-02-18 14:47:00,
2013-02-18 08:52:00,34.8,21.0,29.61,NNW,345,0.0,0.0,58,0.00,,,0.00,TxWx,2013-02-18 14:52:00,
2013-02-18 08:57:00,35.2,20.0,29.60,NNW,342,0.0,0.0,58,0.00,,,0.00,TxWx,2013-02-18 14:57:00,
2013-02-18 09:02:00,35.8,22.0,29.61,NNW,347,0.0,0.0,58,0.00,,,0.00,TxWx,2013-02-18 15:02:00,
2013-02-18 09:08:00,36.1,21.0,29.61,NNW,344,0.0,0.0,58,0.00,,,0.00,TxWx,2013-02-18 15:08:00,
2013-02-18 09:13:00,36.8,22.0,29.60,NNW,346,0.0,0.0,58,0.00,,,0.00,TxWx,2013-02-18 15:13:00,
2013-02-18 09:18:00,37.1,22.0,29.60,NNW,346,0.0,0.0,58,0.00,,,0.00,TxWx,2013-02-18 15:18:00,
2013-02-18 09:23:00,37.5,23.0,29.60,NNW,345,0.0,0.0,58,0.00,,,0.00,TxWx,2013-02-18 15:23:00,
2013-02-18 09:28:00,38.0,24.0,29.59,NNW,347,0.0,0.0,58,0.00,,,0.00,TxWx,2013-02-18 15:28:00,
2013-02-18 09:34:00,38.3,24.0,29.59,NNW,345,0.0,0.0,58,0.00,,,0.00,TxWx,2013-02-18 15:34:00,
2013-02-18 09:39:00,38.9,24.0,29.59,NNW,343,0.0,0.0,58,0.00,,,0.00,TxWx,2013-02-18 15:39:00,
2013-02-18 09:44:00,39.4,24.0,29.58,NNW,344,0.0,0.0,58,0.00,,,0.00,TxWx,2013-02-18 15:44:00,
2013-02-18 09:50:00,40.3,25.0,29.58,NNW,344,0.0,0.0,58,0.00,,,0.00,TxWx,2013-02-18 15:50:00,
2013-02-18 09:55:00,41.0,26.0,29.58,NNW,344,0.0,0.0,58,0.00,,,0.00,TxWx,2013-02-18 15:55:00,
2013-02-18 10:00:00,41.8,27.0,29.58,North,349,0.0,0.0,57,0.00,,,0.00,TxWx,2013-02-18 16:00:00,
2013-02-18 10:05:00,42.3,26.0,29.58,North,349,0.0,0.0,56,0.00,,,0.00,TxWx,2013-02-18 16:05:00,
2013-02-18 10:13:00,43.2,27.0,29.58,NNW,345,0.0,0.0,56,0.00,,,0.00,TxWx,2013-02-18 16:13:00,
2013-02-18 10:18:00,43.3,28.0,29.57,NNW,344,0.0,0.0,57,0.00,,,0.00,TxWx,2013-02-18 16:18:00,
2013-02-18 10:24:00,43.2,27.0,29.57,NNW,345,0.0,0.0,56,0.00,,,0.00,TxWx,2013-02-18 16:24:00,
2013-02-18 10:29:00,43.5,28.0,29.57,NNW,345,0.0,0.0,56,0.00,,,0.00,TxWx,2013-02-18 16:29:00,
2013-02-18 10:34:00,43.9,28.0,29.56,NNW,346,0.0,0.0,56,0.00,,,0.00,TxWx,2013-02-18 16:34:00,
2013-02-18 10:39:00,44.2,28.0,29.56,NNW,343,0.0,0.0,56,0.00,,,0.00,TxWx,2013-02-18 16:39:00,
2013-02-18 10:45:00,44.6,29.0,29.56,North,350,0.0,0.0,56,0.00,,,0.00,TxWx,2013-02-18 16:45:00,
2013-02-18 10:50:00,44.9,29.0,29.56,NNW,344,0.0,0.0,56,0.00,,,0.00,TxWx,2013-02-18 16:50:00,
2013-02-18 10:55:00,45.1,29.0,29.56,NNW,346,0.0,0.0,57,0.00,,,0.00,TxWx,2013-02-18 16:55:00,
2013-02-18 11:00:00,44.8,29.0,29.55,NNW,345,0.0,0.0,56,0.00,,,0.00,TxWx,2013-02-18 17:00:00,
2013-02-18 11:05:00,45.5,29.0,29.55,NNW,347,0.0,0.0,56,0.00,,,0.00,TxWx,2013-02-18 17:05:00,
2013-02-18 11:11:00,45.8,30.0,29.55,NNW,343,0.0,0.0,56,0.00,,,0.00,TxWx,2013-02-18 17:11:00,
2013-02-18 11:16:00,46.6,31.0,29.55,NNW,342,0.0,0.0,56,0.00,,,0.00,TxWx,2013-02-18 17:16:00,
2013-02-18 11:23:00,46.7,31.0,29.55,NNW,345,0.0,0.0,56,0.00,,,0.00,TxWx,2013-02-18 17:23:00,
2013-02-18 11:28:00,46.7,31.0,29.55,North,351,0.0,0.0,55,0.00,,,0.00,TxWx,2013-02-18 17:28:00,
2013-02-18 11:33:00,47.5,31.0,29.54,North,351,0.0,0.0,56,0.00,,,0.00,TxWx,2013-02-18 17:33:00,
2013-02-18 11:38:00,47.8,33.0,29.54,NNW,347,0.0,0.0,56,0.00,,,0.00,TxWx,2013-02-18 17:38:00,
2013-02-18 11:43:00,48.3,33.0,29.54,NNW,342,0.0,0.0,56,0.00,,,0.00,TxWx,2013-02-18 17:43:00,
2013-02-18 11:49:00,48.7,34.0,29.54,NNW,346,0.0,0.0,56,0.00,,,0.00,TxWx,2013-02-18 17:49:00,
2013-02-18 11:54:00,49.3,34.0,29.53,NNW,346,0.0,0.0,55,0.00,,,0.00,TxWx,2013-02-18 17:54:00,
2013-02-18 11:59:00,49.1,34.0,29.53,North,351,0.0,0.0,56,0.00,,,0.00,TxWx,2013-02-18 17:59:00,
2013-02-18 12:04:00,49.0,34.0,29.52,North,354,0.0,0.0,56,0.00,,,0.00,TxWx,2013-02-18 18:04:00,
2013-02-18 12:10:00,48.9,34.0,29.52,North,351,0.0,0.0,57,0.00,,,0.00,TxWx,2013-02-18 18:10:00,
2013-02-18 12:15:00,49.3,34.0,29.52,North,357,0.0,0.0,57,0.00,,,0.00,TxWx,2013-02-18 18:15:00,
2013-02-18 12:20:00,49.1,34.0,29.51,North,352,0.0,0.0,57,0.00,,,0.00,TxWx,2013-02-18 18:20:00,
2013-02-18 12:25:00,49.6,35.0,29.50,North,353,0.0,0.0,57,0.00,,,0.00,TxWx,2013-02-18 18:25:00,
2013-02-18 12:30:00,49.5,35.0,29.50,North,353,0.0,0.0,57,0.00,,,0.00,TxWx,2013-02-18 18:30:00,
2013-02-18 12:35:00,49.7,35.0,29.50,North,349,0.0,0.0,57,0.00,,,0.00,TxWx,2013-02-18 18:35:00,
2013-02-18 12:40:00,50.3,35.0,29.49,North,352,0.0,0.0,57,0.00,,,0.00,TxWx,2013-02-18 18:40:00,
2013-02-18 12:46:00,50.4,35.0,29.49,North,354,0.0,0.0,57,0.00,,,0.00,TxWx,2013-02-18 18:46:00,
2013-02-18 12:51:00,51.0,36.0,29.49,North,353,0.0,0.0,57,0.00,,,0.00,TxWx,2013-02-18 18:51:00,
2013-02-18 12:56:00,51.4,36.0,29.50,North,351,0.0,0.0,57,0.00,,,0.00,TxWx,2013-02-18 18:56:00,
2013-02-18 13:01:00,51.7,37.0,29.50,North,353,0.0,0.0,56,0.00,,,0.00,TxWx,2013-02-18 19:01:00,
2013-02-18 13:07:00,51.0,36.0,29.49,North,359,0.0,0.0,57,0.00,,,0.00,TxWx,2013-02-18 19:07:00,
2013-02-18 13:12:00,51.0,37.0,29.49,North,358,0.0,0.0,58,0.00,,,0.00,TxWx,2013-02-18 19:12:00,
2013-02-18 13:17:00,51.1,37.0,29.48,North,352,0.0,0.0,58,0.00,,,0.00,TxWx,2013-02-18 19:17:00,
2013-02-18 13:22:00,51.3,37.0,29.48,North,357,0.0,0.0,58,0.00,,,0.00,TxWx,2013-02-18 19:22:00,
2013-02-18 13:27:00,50.9,37.0,29.48,North,355,0.0,0.0,59,0.00,,,0.00,TxWx,2013-02-18 19:27:00,
2013-02-18 13:32:00,51.0,38.0,29.48,North,357,0.0,0.0,60,0.00,,,0.00,TxWx,2013-02-18 19:32:00,
2013-02-18 13:37:00,51.0,38.0,29.48,North,355,0.0,0.0,61,0.00,,,0.00,TxWx,2013-02-18 19:37:00,
2013-02-18 13:42:00,51.0,38.0,29.48,NNW,348,0.0,0.0,61,0.00,,,0.00,TxWx,2013-02-18 19:42:00,
2013-02-18 13:48:00,50.8,38.0,29.48,NNW,343,0.0,0.0,62,0.00,,,0.00,TxWx,2013-02-18 19:48:00,
2013-02-18 13:53:00,50.5,38.0,29.48,North,349,0.0,0.0,64,0.00,,,0.00,TxWx,2013-02-18 19:53:00,
2013-02-18 13:58:00,50.4,38.0,29.47,NNW,346,0.0,0.0,64,0.00,,,0.00,TxWx,2013-02-18 19:58:00,
2013-02-18 14:03:00,50.0,38.0,29.47,NNW,342,0.0,0.0,64,0.00,,,0.00,TxWx,2013-02-18 20:03:00,
2013-02-18 14:08:00,49.8,38.0,29.46,North,349,0.0,0.0,65,0.00,,,0.00,TxWx,2013-02-18 20:08:00,
2013-02-18 14:13:00,49.7,39.0,29.45,NNW,340,0.0,0.0,66,0.00,,,0.00,TxWx,2013-02-18 20:13:00,
2013-02-18 14:18:00,49.8,39.0,29.46,NNW,347,0.0,0.0,67,0.00,,,0.00,TxWx,2013-02-18 20:18:00,
2013-02-18 14:23:00,49.8,39.0,29.45,NNW,343,0.0,0.0,67,0.00,,,0.00,TxWx,2013-02-18 20:23:00,
2013-02-18 14:29:00,49.7,40.0,29.45,NNW,342,0.0,0.0,68,0.00,,,0.00,TxWx,2013-02-18 20:29:00,
2013-02-18 14:34:00,49.8,40.0,29.45,NNW,345,0.0,0.0,69,0.00,,,0.00,TxWx,2013-02-18 20:34:00,
2013-02-18 14:39:00,49.9,40.0,29.45,NNW,346,0.0,0.0,70,0.00,,,0.00,TxWx,2013-02-18 20:39:00,
2013-02-18 14:44:00,49.9,41.0,29.44,NNW,343,0.0,0.0,70,0.00,,,0.00,TxWx,2013-02-18 20:44:00,
2013-02-18 14:49:00,49.8,41.0,29.44,NNW,342,0.0,0.0,71,0.00,,,0.00,TxWx,2013-02-18 20:49:00,
2013-02-18 14:54:00,49.8,41.0,29.44,NNW,347,0.0,0.0,71,0.00,,,0.00,TxWx,2013-02-18 20:54:00,
2013-02-18 14:59:00,49.7,41.0,29.43,NNW,341,0.0,0.0,72,0.00,,,0.00,TxWx,2013-02-18 20:59:00,
2013-02-18 15:05:00,49.7,41.0,29.43,NNW,345,0.0,0.0,72,0.00,,,0.00,TxWx,2013-02-18 21:05:00,
2013-02-18 15:10:00,49.5,40.0,29.43,NNW,345,0.0,0.0,72,0.00,,,0.00,TxWx,2013-02-18 21:10:00,
2013-02-18 15:15:00,49.3,40.0,29.43,NNW,348,0.0,0.0,72,0.00,,,0.00,TxWx,2013-02-18 21:15:00,
2013-02-18 15:20:00,49.3,41.0,29.43,North,352,0.0,0.0,73,0.00,,,0.00,TxWx,2013-02-18 21:20:00,
2013-02-18 15:25:00,49.3,41.0,29.43,NNW,348,0.0,0.0,73,0.00,,,0.00,TxWx,2013-02-18 21:25:00,
2013-02-18 15:31:00,49.2,41.0,29.42,NNW,347,0.0,0.0,73,0.00,,,0.00,TxWx,2013-02-18 21:31:00,
2013-02-18 15:36:00,49.2,41.0,29.42,North,352,0.0,0.0,73,0.00,,,0.00,TxWx,2013-02-18 21:36:00,
2013-02-18 15:41:00,49.2,41.0,29.42,North,350,0.0,0.0,73,0.00,,,0.00,TxWx,2013-02-18 21:41:00,
2013-02-18 15:46:00,49.2,41.0,29.42,North,349,0.0,0.0,73,0.00,,,0.00,TxWx,2013-02-18 21:46:00,
2013-02-18 15:51:00,49.2,41.0,29.42,NNW,348,0.0,0.0,73,0.00,,,0.00,TxWx,2013-02-18 21:51:00,
2013-02-18 15:56:00,49.1,41.0,29.42,NNW,345,0.0,0.0,73,0.00,,,0.00,TxWx,2013-02-18 21:56:00,
2013-02-18 16:02:00,49.1,41.0,29.42,North,352,0.0,0.0,73,0.00,,,0.00,TxWx,2013-02-18 22:02:00,
2013-02-18 16:07:00,48.9,41.0,29.41,NNW,346,0.0,0.0,73,0.00,,,0.00,TxWx,2013-02-18 22:07:00,
2013-02-18 16:12:00,48.7,41.0,29.41,NNW,348,0.0,0.0,74,0.00,,,0.00,TxWx,2013-02-18 22:12:00,
2013-02-18 16:18:00,48.3,41.0,29.41,NNW,344,0.0,0.0,76,0.00,,,0.00,TxWx,2013-02-18 22:18:00,
2013-02-18 16:23:00,47.6,41.0,29.41,NNW,348,0.0,0.0,78,0.00,,,0.00,TxWx,2013-02-18 22:23:00,
2013-02-18 16:28:00,47.0,41.0,29.41,NNW,345,0.0,0.0,81,0.00,,,0.01,TxWx,2013-02-18 22:28:00,
2013-02-18 16:33:00,46.5,41.0,29.41,North,356,0.0,0.0,83,0.00,,,0.01,TxWx,2013-02-18 22:33:00,
2013-02-18 16:38:00,46.3,41.0,29.40,North,349,0.0,0.0,84,0.00,,,0.01,TxWx,2013-02-18 22:38:00,
2013-02-18 16:43:00,46.5,42.0,29.40,NNW,347,0.0,0.0,85,0.00,,,0.01,TxWx,2013-02-18 22:43:00,
2013-02-18 16:48:00,46.6,42.0,29.40,NNW,348,0.0,0.0,84,0.00,,,0.01,TxWx,2013-02-18 22:48:00,
2013-02-18 16:53:00,46.6,42.0,29.40,NNW,347,0.0,0.0,84,0.00,,,0.01,TxWx,2013-02-18 22:53:00,
2013-02-18 16:59:00,46.6,43.0,29.40,North,349,0.0,0.0,85,0.00,,,0.01,TxWx,2013-02-18 22:59:00,
2013-02-18 17:05:00,46.6,43.0,29.39,North,353,0.0,0.0,85,0.00,,,0.02,TxWx,2013-02-18 23:05:00,
2013-02-18 17:10:00,46.5,42.0,29.39,North,349,0.0,0.0,86,0.00,,,0.02,TxWx,2013-02-18 23:10:00,
2013-02-18 17:15:00,46.3,42.0,29.39,NNW,348,0.0,0.0,87,0.00,,,0.02,TxWx,2013-02-18 23:15:00,
2013-02-18 17:21:00,46.3,42.0,29.39,North,349,0.0,0.0,87,0.00,,,0.02,TxWx,2013-02-18 23:21:00,
2013-02-18 17:26:00,46.3,42.0,29.38,North,351,0.0,0.0,88,0.00,,,0.03,TxWx,2013-02-18 23:26:00,
2013-02-18 17:31:00,46.6,43.0,29.38,NNW,347,0.0,0.0,87,0.00,,,0.03,TxWx,2013-02-18 23:31:00,
2013-02-18 17:36:00,46.8,43.0,29.38,NNW,347,0.0,0.0,85,0.00,,,0.03,TxWx,2013-02-18 23:36:00,
2013-02-18 17:42:00,46.8,42.0,29.37,North,350,0.0,0.0,84,0.00,,,0.03,TxWx,2013-02-18 23:42:00,
2013-02-18 17:47:00,46.8,42.0,29.37,NNW,345,0.0,0.0,84,0.00,,,0.03,TxWx,2013-02-18 23:47:00,
2013-02-18 17:52:00,47.0,42.0,29.37,North,7,0.0,0.0,83,0.00,,,0.03,TxWx,2013-02-18 23:52:00,
2013-02-18 17:57:00,47.0,42.0,29.37,North,349,0.0,0.0,82,0.00,,,0.03,TxWx,2013-02-18 23:57:00,
2013-02-18 18:03:00,46.9,42.0,29.37,North,352,0.0,0.0,82,0.00,,,0.03,TxWx,2013-02-19 00:03:00,
2013-02-18 18:08:00,46.8,42.0,29.37,NNW,346,0.0,0.0,83,0.00,,,0.03,TxWx,2013-02-19 00:08:00,
2013-02-18 18:13:00,46.8,42.0,29.36,North,352,0.0,0.0,83,0.00,,,0.03,TxWx,2013-02-19 00:13:00,
2013-02-18 18:18:00,47.1,41.0,29.36,North,355,0.0,0.0,81,0.00,,,0.03,TxWx,2013-02-19 00:18:00,
2013-02-18 18:23:00,47.2,40.0,29.36,North,2,0.0,0.0,78,0.00,,,0.03,TxWx,2013-02-19 00:23:00,
2013-02-18 18:28:00,47.0,40.0,29.35,North,5,0.0,0.0,77,0.00,,,0.03,TxWx,2013-02-19 00:28:00,
2013-02-18 18:33:00,47.0,40.0,29.35,North,4,0.0,0.0,76,0.00,,,0.03,TxWx,2013-02-19 00:33:00,
2013-02-18 18:44:00,46.3,39.0,29.35,North,3,0.0,0.0,77,0.00,,,0.03,TxWx,2013-02-19 00:44:00,
2013-02-18 18:49:00,46.1,39.0,29.34,North,357,0.0,0.0,77,0.00,,,0.03,TxWx,2013-02-19 00:49:00,
2013-02-18 18:55:00,45.6,40.0,29.34,North,357,0.0,0.0,79,0.00,,,0.03,TxWx,2013-02-19 00:55:00,
2013-02-18 19:00:00,45.6,40.0,29.34,North,351,0.0,0.0,79,0.00,,,0.03,TxWx,2013-02-19 01:00:00,
2013-02-18 19:05:00,45.5,40.0,29.34,NNW,347,0.0,0.0,80,0.00,,,0.03,TxWx,2013-02-19 01:05:00,
2013-02-18 19:10:00,45.5,39.0,29.34,North,0,0.0,0.0,80,0.00,,,0.04,TxWx,2013-02-19 01:10:00,
2013-02-18 19:16:00,46.0,39.0,29.33,North,2,0.0,0.0,78,0.00,,,0.04,TxWx,2013-02-19 01:16:00,
2013-02-18 19:23:00,45.9,39.0,29.33,North,1,0.0,0.0,77,0.00,,,0.04,TxWx,2013-02-19 01:23:00,
2013-02-18 19:28:00,45.5,40.0,29.32,North,4,0.0,0.0,78,0.00,,,0.04,TxWx,2013-02-19 01:28:00,
2013-02-18 19:33:00,45.6,40.0,29.32,North,352,0.0,0.0,79,0.00,,,0.04,TxWx,2013-02-19 01:33:00,
2013-02-18 19:39:00,45.4,39.0,29.32,North,350,0.0,0.0,79,0.00,,,0.05,TxWx,2013-02-19 01:39:00,
2013-02-18 19:44:00,45.6,40.0,29.32,North,351,0.0,0.0,79,0.00,,,0.05,TxWx,2013-02-19 01:44:00,
2013-02-18 19:49:00,45.2,39.0,29.31,North,349,0.0,0.0,80,0.00,,,0.05,TxWx,2013-02-19 01:49:00,
2013-02-18 19:54:00,45.1,40.0,29.32,North,356,0.0,0.0,81,0.00,,,0.06,TxWx,2013-02-19 01:54:00,
2013-02-18 19:59:00,45.3,40.0,29.31,North,352,0.0,0.0,81,0.00,,,0.06,TxWx,2013-02-19 01:59:00,
2013-02-18 20:04:00,45.0,40.0,29.31,North,351,0.0,0.0,82,0.00,,,0.06,TxWx,2013-02-19 02:04:00,
2013-02-18 20:10:00,44.6,40.0,29.30,North,354,0.0,0.0,83,0.00,,,0.07,TxWx,2013-02-19 02:10:00,
2013-02-18 20:18:00,44.4,40.0,29.29,North,351,0.0,0.0,85,0.00,,,0.08,TxWx,2013-02-19 02:18:00,
2013-02-18 20:24:00,44.3,40.0,29.29,North,350,0.0,0.0,86,0.00,,,0.09,TxWx,2013-02-19 02:24:00,
2013-02-18 20:29:00,44.0,40.0,29.28,NNW,347,0.0,0.0,86,0.00,,,0.09,TxWx,2013-02-19 02:29:00,
2013-02-18 20:34:00,44.1,40.0,29.28,North,349,0.0,0.0,87,0.00,,,0.10,TxWx,2013-02-19 02:34:00,
2013-02-18 20:41:00,43.9,40.0,29.27,NNW,346,0.0,0.0,87,0.00,,,0.10,TxWx,2013-02-19 02:41:00,
2013-02-18 20:49:00,44.0,41.0,29.27,NNW,341,0.0,0.0,88,0.00,,,0.10,TxWx,2013-02-19 02:49:00,
2013-02-18 20:57:00,44.2,40.0,29.27,NNW,344,0.0,0.0,87,0.00,,,0.11,TxWx,2013-02-19 02:57:00,
2013-02-18 21:05:00,44.1,41.0,29.26,NNW,345,0.0,0.0,88,0.00,,,0.11,TxWx,2013-02-19 03:05:00,
2013-02-18 21:12:00,44.0,41.0,29.26,North,9,0.0,0.0,88,0.00,,,0.12,TxWx,2013-02-19 03:12:00,
2013-02-18 21:19:00,44.0,41.0,29.25,North,351,0.0,0.0,89,0.00,,,0.13,TxWx,2013-02-19 03:19:00,
2013-02-18 21:25:00,44.0,41.0,29.24,North,352,0.0,0.0,89,0.00,,,0.14,TxWx,2013-02-19 03:25:00,
2013-02-18 21:33:00,43.9,41.0,29.24,North,349,0.0,0.0,89,0.00,,,0.15,TxWx,2013-02-19 03:33:00,
2013-02-18 21:38:00,44.0,41.0,29.23,North,358,0.0,0.0,89,0.00,,,0.16,TxWx,2013-02-19 03:38:00,
2013-02-18 21:45:00,44.1,41.0,29.23,North,359,0.0,0.0,90,0.00,,,0.16,TxWx,2013-02-19 03:45:00,
2013-02-18 21:56:00,44.3,41.0,29.23,North,357,0.0,0.0,89,0.00,,,0.17,TxWx,2013-02-19 03:56:00,
2013-02-18 22:02:00,44.3,41.0,29.22,North,7,0.0,0.0,89,0.00,,,0.17,TxWx,2013-02-19 04:02:00,
2013-02-18 22:07:00,44.2,41.0,29.22,North,352,0.0,0.0,89,0.00,,,0.17,TxWx,2013-02-19 04:07:00,
2013-02-18 22:12:00,44.4,41.0,29.21,North,359,0.0,0.0,90,0.00,,,0.17,TxWx,2013-02-19 04:12:00,
2013-02-18 22:17:00,44.3,41.0,29.21,North,2,0.0,0.0,90,0.00,,,0.18,TxWx,2013-02-19 04:17:00,
2013-02-18 22:23:00,44.3,41.0,29.21,North,349,0.0,0.0,90,0.00,,,0.18,TxWx,2013-02-19 04:23:00,
2013-02-18 22:28:00,44.4,41.0,29.21,North,4,0.0,0.0,90,0.00,,,0.19,TxWx,2013-02-19 04:28:00,
2013-02-18 22:33:00,44.3,41.0,29.21,North,349,0.0,0.0,90,0.00,,,0.20,TxWx,2013-02-19 04:33:00,
2013-02-18 22:40:00,44.4,41.0,29.21,North,352,0.0,0.0,90,0.00,,,0.21,TxWx,2013-02-19 04:40:00,
2013-02-18 22:45:00,44.4,41.0,29.20,North,353,0.0,0.0,90,0.00,,,0.21,TxWx,2013-02-19 04:45:00,
2013-02-18 22:52:00,44.3,41.0,29.21,North,353,0.0,0.0,90,0.00,,,0.22,TxWx,2013-02-19 04:52:00,
2013-02-18 22:57:00,44.2,41.0,29.21,North,357,0.0,0.0,90,0.00,,,0.22,TxWx,2013-02-19 04:57:00,
2013-02-18 23:00:00,44.2,41.0,29.21,North,354,0.0,0.0,90,0.00,,,0.23,TxWx,2013-02-19 05:00:00,
2013-02-18 23:01:00,44.2,41.0,29.21,NNE,13,0.0,0.0,90,0.00,,,0.23,TxWx,2013-02-19 05:01:00,
2013-02-18 23:05:00,44.2,41.0,29.22,NNW,347,0.0,0.0,91,0.00,,,0.01,TxWx,2013-02-19 05:05:00,
2013-02-18 23:11:00,44.0,41.0,29.22,NNE,16,0.0,0.0,91,0.00,,,0.03,TxWx,2013-02-19 05:11:00,
2013-02-18 23:16:00,43.7,41.0,29.22,North,2,0.0,0.0,91,0.00,,,0.03,TxWx,2013-02-19 05:16:00,
2013-02-18 23:21:00,43.2,40.0,29.24,NNE,14,0.0,0.0,91,0.00,,,0.03,TxWx,2013-02-19 05:21:00,
2013-02-18 23:26:00,40.5,36.0,29.24,North,2,0.0,0.0,87,0.00,,,0.04,TxWx,2013-02-19 05:26:00,
2013-02-18 23:31:00,39.4,36.0,29.25,North,3,0.0,0.0,89,0.00,,,0.04,TxWx,2013-02-19 05:31:00,
2013-02-18 23:36:00,38.4,35.0,29.25,NW,313,0.0,0.0,89,0.00,,,0.04,TxWx,2013-02-19 05:36:00,
2013-02-18 23:41:00,37.5,35.0,29.26,NW,316,0.0,0.0,89,0.00,,,0.05,TxWx,2013-02-19 05:41:00,
2013-02-18 23:47:00,36.1,33.0,29.27,NW,324,0.0,0.0,89,0.00,,,0.05,TxWx,2013-02-19 05:47:00,
2013-02-18 23:52:00,35.2,32.0,29.27,NW,325,0.0,0.0,90,0.00,,,0.06,TxWx,2013-02-19 05:52:00,
2013-02-18 23:57:00,34.2,31.0,29.27,NW,314,0.0,0.0,91,0.00,,,0.06,TxWx,2013-02-19 05:57:00,